Location: Ch?enovice
(49.7164°N, 15.2160°E)
Time: 21:10:51
(UTC+00:00)

Cosmos 968 Rocket - Pass Details

Date: 23 May 2024
Orbit: 738 x 769 km, 74.0° (Epoch: 21 June)

Event Time Altitude Azimuth Distance (km) Brightness Sun altitude
Exits shadow 02:02:16 11° 225° (SW) 2,205 5.2 -8.4°
Maximum altitude 02:07:05 49° 300° (WNW) 961 3.9 -7.9°
Drops below altitude 10° 02:12:04 10° 15° (NNE) 2,273 7.0 -7.3°
Sets 02:14:32 0° 21° (NNE) 3,206 8.1 -7.0°
